Time,TemperatureF,DewpointF,PressureIn,WindDirection,WindDirectionDegrees,WindSpeedMPH,WindSpeedGustMPH,Humidity,HourlyPrecipIn,Conditions,Clouds,dailyrainin,SoftwareType,DateUTC
2013-01-29 00:06:00,47.3,47.0,30.00,SW,227,1.0,-999.0,98,-99.99,,,0.02,weatherlink.com 1.10,2013-01-29 05:06:00,
2013-01-29 00:21:00,47.3,47.0,29.99,SW,227,1.0,-999.0,98,-99.99,,,0.02,weatherlink.com 1.10,2013-01-29 05:21:00,
2013-01-29 00:36:00,47.4,47.0,29.99,SW,223,0.0,-999.0,98,-99.99,,,0.02,weatherlink.com 1.10,2013-01-29 05:36:00,
2013-01-29 00:51:00,47.5,47.0,29.98,SW,223,1.0,-999.0,98,-99.99,,,0.02,weatherlink.com 1.10,2013-01-29 05:51:00,
2013-01-29 01:06:00,47.8,47.0,29.97,SSW,210,2.0,-999.0,98,-99.99,,,0.02,weatherlink.com 1.10,2013-01-29 06:06:00,
2013-01-29 01:21:00,48.0,48.0,29.97,SSW,198,0.0,-999.0,98,-99.99,,,0.02,weatherlink.com 1.10,2013-01-29 06:21:00,
2013-01-29 01:36:00,48.0,48.0,29.96,SSW,198,2.0,-999.0,98,-99.99,,,0.02,weatherlink.com 1.10,2013-01-29 06:36:00,
2013-01-29 01:51:00,47.9,47.0,29.96,SSW,198,4.0,-999.0,98,-99.99,,,0.02,weatherlink.com 1.10,2013-01-29 06:51:00,
2013-01-29 02:06:00,47.9,47.0,29.96,South,190,1.0,-999.0,98,-99.99,,,0.02,weatherlink.com 1.10,2013-01-29 07:06:00,
2013-01-29 02:21:00,47.9,47.0,29.95,South,190,4.0,-999.0,98,-99.99,,,0.02,weatherlink.com 1.10,2013-01-29 07:21:00,
2013-01-29 02:36:00,48.0,48.0,29.95,South,184,3.0,-999.0,98,-99.99,,,0.02,weatherlink.com 1.10,2013-01-29 07:36:00,
2013-01-29 02:51:00,48.0,48.0,29.95,South,178,5.0,-999.0,98,-99.99,,,0.02,weatherlink.com 1.10,2013-01-29 07:51:00,
2013-01-29 03:07:00,48.2,48.0,29.94,South,175,5.0,-999.0,98,-99.99,,,0.02,weatherlink.com 1.10,2013-01-29 08:07:00,
2013-01-29 03:22:00,48.8,48.0,29.94,South,173,6.0,-999.0,98,-99.99,,,0.02,weatherlink.com 1.10,2013-01-29 08:22:00,
2013-01-29 03:37:00,49.1,49.0,29.92,South,175,4.0,-999.0,98,-99.99,,,0.02,weatherlink.com 1.10,2013-01-29 08:37:00,
2013-01-29 03:52:00,49.8,49.0,29.91,SSE,167,6.0,-999.0,98,-99.99,,,0.02,weatherlink.com 1.10,2013-01-29 08:52:00,
2013-01-29 04:07:00,50.2,50.0,29.91,SSE,162,7.0,-999.0,99,-99.99,,,0.02,weatherlink.com 1.10,2013-01-29 09:07:00,
2013-01-29 04:22:00,50.2,50.0,29.90,South,169,8.0,-999.0,99,-99.99,,,0.02,weatherlink.com 1.10,2013-01-29 09:22:00,
2013-01-29 04:37:00,50.2,50.0,29.90,South,178,10.0,-999.0,99,-99.99,,,0.02,weatherlink.com 1.10,2013-01-29 09:37:00,
2013-01-29 04:54:00,50.1,50.0,29.90,SSW,193,4.0,-999.0,99,-99.99,,,0.02,weatherlink.com 1.10,2013-01-29 09:54:00,
2013-01-29 05:07:00,50.3,50.0,29.90,SSW,198,3.0,-999.0,99,-99.99,,,0.02,weatherlink.com 1.10,2013-01-29 10:07:00,
2013-01-29 05:22:00,50.2,50.0,29.89,SSW,192,4.0,-999.0,99,-99.99,,,0.02,weatherlink.com 1.10,2013-01-29 10:22:00,
2013-01-29 05:38:00,50.3,50.0,29.88,South,189,3.0,-999.0,99,-99.99,,,0.02,weatherlink.com 1.10,2013-01-29 10:38:00,
2013-01-29 05:53:00,51.0,51.0,29.87,SSW,198,5.0,-999.0,99,-99.99,,,0.02,weatherlink.com 1.10,2013-01-29 10:53:00,
2013-01-29 06:08:00,51.2,51.0,29.87,SSW,201,11.0,-999.0,98,-99.99,,,0.00,weatherlink.com 1.10,2013-01-29 11:08:00,
2013-01-29 06:23:00,51.2,51.0,29.86,SSW,207,11.0,-999.0,98,-99.99,,,0.00,weatherlink.com 1.10,2013-01-29 11:23:00,
2013-01-29 06:38:00,51.0,51.0,29.84,South,169,8.0,-999.0,98,-99.99,,,0.00,weatherlink.com 1.10,2013-01-29 11:38:00,
2013-01-29 06:53:00,51.2,51.0,29.84,SSE,150,5.0,-999.0,98,-99.99,,,0.01,weatherlink.com 1.10,2013-01-29 11:53:00,
2013-01-29 07:08:00,51.3,51.0,29.84,SSW,199,3.0,-999.0,97,-99.99,,,0.01,weatherlink.com 1.10,2013-01-29 12:08:00,
2013-01-29 07:23:00,52.1,51.0,29.84,SW,216,8.0,-999.0,96,-99.99,,,0.01,weatherlink.com 1.10,2013-01-29 12:23:00,
2013-01-29 07:39:00,52.6,51.0,29.84,SW,215,10.0,-999.0,95,-99.99,,,0.01,weatherlink.com 1.10,2013-01-29 12:39:00,
2013-01-29 07:54:00,52.9,51.0,29.84,SW,218,25.0,-999.0,94,-99.99,,,0.01,weatherlink.com 1.10,2013-01-29 12:54:00,
2013-01-29 08:08:00,53.0,51.0,29.84,SSW,202,12.0,-999.0,94,-99.99,,,0.01,weatherlink.com 1.10,2013-01-29 13:08:00,
2013-01-29 08:24:00,53.2,52.0,29.84,SSW,208,6.0,-999.0,94,-99.99,,,0.01,weatherlink.com 1.10,2013-01-29 13:24:00,
2013-01-29 08:39:00,53.5,52.0,29.83,SSW,198,12.0,-999.0,94,-99.99,,,0.01,weatherlink.com 1.10,2013-01-29 13:39:00,
2013-01-29 08:54:00,53.9,52.0,29.84,South,190,6.0,-999.0,94,-99.99,,,0.01,weatherlink.com 1.10,2013-01-29 13:54:00,
2013-01-29 09:09:00,54.1,53.0,29.84,SSW,213,13.0,-999.0,94,-99.99,,,0.01,weatherlink.com 1.10,2013-01-29 14:09:00,
2013-01-29 09:24:00,54.3,52.0,29.83,SSW,209,10.0,-999.0,93,-99.99,,,0.01,weatherlink.com 1.10,2013-01-29 14:24:00,
2013-01-29 09:39:00,54.5,53.0,29.84,SSW,196,5.0,-999.0,93,-99.99,,,0.01,weatherlink.com 1.10,2013-01-29 14:39:00,
2013-01-29 09:54:00,54.7,53.0,29.84,SSW,201,6.0,-999.0,93,-99.99,,,0.01,weatherlink.com 1.10,2013-01-29 14:54:00,
2013-01-29 10:09:00,54.7,53.0,29.83,SSW,194,6.0,-999.0,93,-99.99,,,0.01,weatherlink.com 1.10,2013-01-29 15:09:00,
2013-01-29 10:24:00,54.8,53.0,29.83,SSW,202,3.0,-999.0,93,-99.99,,,0.01,weatherlink.com 1.10,2013-01-29 15:24:00,
2013-01-29 10:39:00,55.1,53.0,29.83,SSW,206,2.0,-999.0,93,-99.99,,,0.01,weatherlink.com 1.10,2013-01-29 15:39:00,
2013-01-29 10:54:00,55.3,53.0,29.83,SSW,205,1.0,-999.0,93,-99.99,,,0.01,weatherlink.com 1.10,2013-01-29 15:54:00,
2013-01-29 11:10:00,55.5,54.0,29.82,SSW,198,4.0,-999.0,93,-99.99,,,0.01,weatherlink.com 1.10,2013-01-29 16:10:00,
2013-01-29 11:25:00,55.7,54.0,29.83,SSW,210,8.0,-999.0,93,-99.99,,,0.01,weatherlink.com 1.10,2013-01-29 16:25:00,
2013-01-29 11:40:00,56.2,54.0,29.82,SSW,194,9.0,-999.0,93,-99.99,,,0.01,weatherlink.com 1.10,2013-01-29 16:40:00,
2013-01-29 11:55:00,56.5,55.0,29.83,SW,217,3.0,-999.0,93,-99.99,,,0.01,weatherlink.com 1.10,2013-01-29 16:55:00,
2013-01-29 12:10:00,56.6,54.0,29.82,SW,214,3.0,-999.0,92,-99.99,,,0.01,weatherlink.com 1.10,2013-01-29 17:10:00,
2013-01-29 12:24:00,56.7,55.0,29.81,SSW,200,3.0,-999.0,92,-99.99,,,0.01,weatherlink.com 1.10,2013-01-29 17:24:00,
2013-01-29 12:40:00,57.2,55.0,29.80,SSW,210,12.0,-999.0,92,-99.99,,,0.01,weatherlink.com 1.10,2013-01-29 17:40:00,
2013-01-29 12:55:00,57.9,55.0,29.80,SW,219,4.0,-999.0,91,-99.99,,,0.01,weatherlink.com 1.10,2013-01-29 17:55:00,
2013-01-29 13:11:00,58.4,56.0,29.79,SSW,207,13.0,-999.0,91,-99.99,,,0.01,weatherlink.com 1.10,2013-01-29 18:11:00,
2013-01-29 13:26:00,59.0,56.0,29.79,SW,221,11.0,-999.0,90,-99.99,,,0.01,weatherlink.com 1.10,2013-01-29 18:26:00,
2013-01-29 13:41:00,59.1,56.0,29.77,SSW,196,12.0,-999.0,89,-99.99,,,0.01,weatherlink.com 1.10,2013-01-29 18:41:00,
2013-01-29 13:56:00,59.2,56.0,29.76,SSW,198,7.0,-999.0,89,-99.99,,,0.01,weatherlink.com 1.10,2013-01-29 18:56:00,
2013-01-29 14:11:00,59.7,56.0,29.75,SSW,200,6.0,-999.0,88,-99.99,,,0.01,weatherlink.com 1.10,2013-01-29 19:11:00,
2013-01-29 14:26:00,60.0,57.0,29.75,SSW,207,12.0,-999.0,88,-99.99,,,0.01,weatherlink.com 1.10,2013-01-29 19:26:00,
2013-01-29 14:41:00,60.2,56.0,29.75,SW,223,18.0,-999.0,87,-99.99,,,0.01,weatherlink.com 1.10,2013-01-29 19:41:00,
2013-01-29 14:56:00,60.3,57.0,29.74,South,188,10.0,-999.0,87,-99.99,,,0.02,weatherlink.com 1.10,2013-01-29 19:56:00,
2013-01-29 15:12:00,60.4,57.0,29.74,SSW,192,10.0,-999.0,87,-99.99,,,0.02,weatherlink.com 1.10,2013-01-29 20:12:00,
2013-01-29 15:26:00,60.1,56.0,29.74,South,176,7.0,-999.0,87,-99.99,,,0.02,weatherlink.com 1.10,2013-01-29 20:26:00,
2013-01-29 15:42:00,60.1,56.0,29.74,SSW,193,9.0,-999.0,87,-99.99,,,0.02,weatherlink.com 1.10,2013-01-29 20:42:00,
2013-01-29 15:56:00,59.8,56.0,29.74,SSW,207,15.0,-999.0,87,-99.99,,,0.02,weatherlink.com 1.10,2013-01-29 20:56:00,
2013-01-29 16:12:00,59.9,56.0,29.74,South,190,8.0,-999.0,87,-99.99,,,0.02,weatherlink.com 1.10,2013-01-29 21:12:00,
2013-01-29 16:27:00,59.8,56.0,29.73,South,185,9.0,-999.0,87,-99.99,,,0.02,weatherlink.com 1.10,2013-01-29 21:27:00,
2013-01-29 16:42:00,59.9,56.0,29.72,South,190,9.0,-999.0,86,-99.99,,,0.02,weatherlink.com 1.10,2013-01-29 21:42:00,
2013-01-29 16:57:00,59.7,56.0,29.73,South,189,5.0,-999.0,86,-99.99,,,0.02,weatherlink.com 1.10,2013-01-29 21:57:00,
2013-01-29 17:12:00,59.0,56.0,29.73,South,175,6.0,-999.0,89,-99.99,,,0.02,weatherlink.com 1.10,2013-01-29 22:12:00,
2013-01-29 17:27:00,58.8,55.0,29.72,South,188,7.0,-999.0,87,-99.99,,,0.02,weatherlink.com 1.10,2013-01-29 22:27:00,
2013-01-29 17:42:00,59.0,56.0,29.71,South,170,9.0,-999.0,89,-99.99,,,0.02,weatherlink.com 1.10,2013-01-29 22:42:00,
2013-01-29 17:57:00,59.3,55.0,29.70,SSE,165,8.0,-999.0,86,-99.99,,,0.02,weatherlink.com 1.10,2013-01-29 22:57:00,
2013-01-29 18:12:00,59.3,55.0,29.70,SSW,192,5.0,-999.0,86,-99.99,,,0.02,weatherlink.com 1.10,2013-01-29 23:12:00,
2013-01-29 18:28:00,59.4,55.0,29.69,SSE,168,7.0,-999.0,86,-99.99,,,0.02,weatherlink.com 1.10,2013-01-29 23:28:00,
2013-01-29 18:42:00,59.4,55.0,29.68,SSE,164,6.0,-999.0,86,-99.99,,,0.02,weatherlink.com 1.10,2013-01-29 23:42:00,
2013-01-29 18:58:00,59.6,56.0,29.68,SSW,197,8.0,-999.0,86,-99.99,,,0.02,weatherlink.com 1.10,2013-01-29 23:58:00,
2013-01-29 19:13:00,59.8,56.0,29.68,SSE,167,7.0,-999.0,86,-99.99,,,0.02,weatherlink.com 1.10,2013-01-30 00:13:00,
2013-01-29 19:28:00,59.6,56.0,29.66,South,187,10.0,-999.0,86,-99.99,,,0.02,weatherlink.com 1.10,2013-01-30 00:28:00,
2013-01-29 19:43:00,59.8,56.0,29.66,South,176,8.0,-999.0,86,-99.99,,,0.02,weatherlink.com 1.10,2013-01-30 00:43:00,
2013-01-29 19:58:00,60.1,56.0,29.65,SSE,166,9.0,-999.0,86,-99.99,,,0.02,weatherlink.com 1.10,2013-01-30 00:58:00,
2013-01-29 20:13:00,60.0,56.0,29.65,South,170,7.0,-999.0,86,-99.99,,,0.02,weatherlink.com 1.10,2013-01-30 01:13:00,
2013-01-29 20:28:00,59.8,56.0,29.64,South,180,6.0,-999.0,87,-99.99,,,0.02,weatherlink.com 1.10,2013-01-30 01:28:00,
2013-01-29 20:43:00,59.8,56.0,29.63,South,178,8.0,-999.0,87,-99.99,,,0.02,weatherlink.com 1.10,2013-01-30 01:43:00,
2013-01-29 20:58:00,59.6,56.0,29.62,SSE,157,8.0,-999.0,87,-99.99,,,0.02,weatherlink.com 1.10,2013-01-30 01:58:00,
2013-01-29 21:13:00,59.4,56.0,29.61,SSE,163,9.0,-999.0,87,-99.99,,,0.02,weatherlink.com 1.10,2013-01-30 02:13:00,
2013-01-29 21:28:00,59.3,56.0,29.59,South,169,8.0,-999.0,87,-99.99,,,0.02,weatherlink.com 1.10,2013-01-30 02:28:00,
2013-01-29 21:44:00,59.3,56.0,29.57,SSE,167,8.0,-999.0,87,-99.99,,,0.02,weatherlink.com 1.10,2013-01-30 02:44:00,
2013-01-29 21:59:00,59.4,56.0,29.56,SE,135,12.0,-999.0,87,-99.99,,,0.02,weatherlink.com 1.10,2013-01-30 02:59:00,
2013-01-29 22:14:00,59.5,56.0,29.55,SSE,165,6.0,-999.0,87,-99.99,,,0.02,weatherlink.com 1.10,2013-01-30 03:14:00,
2013-01-29 22:29:00,60.1,56.0,29.54,SSE,160,8.0,-999.0,86,-99.99,,,0.02,weatherlink.com 1.10,2013-01-30 03:29:00,
2013-01-29 22:44:00,60.4,56.0,29.52,SSW,197,13.0,-999.0,86,-99.99,,,0.02,weatherlink.com 1.10,2013-01-30 03:44:00,
2013-01-29 22:59:00,61.3,57.0,29.51,South,171,14.0,-999.0,85,-99.99,,,0.03,weatherlink.com 1.10,2013-01-30 03:59:00,
2013-01-29 23:14:00,61.9,57.0,29.49,SSE,152,11.0,-999.0,84,-99.99,,,0.03,weatherlink.com 1.10,2013-01-30 04:14:00,
2013-01-29 23:29:00,62.0,57.0,29.47,South,182,13.0,-999.0,84,-99.99,,,0.03,weatherlink.com 1.10,2013-01-30 04:29:00,
2013-01-29 23:44:00,62.2,57.0,29.47,South,187,12.0,-999.0,84,-99.99,,,0.03,weatherlink.com 1.10,2013-01-30 04:44:00,